15 daagse weersverwachting Vienna (AT)

  • Overzicht
  • Per uur
  • 15 dagen
  • Extra
  • Vergelijk
  • Kaarten
  • Dagkaart
  • Meer »
  • Info
  • Statistieken
  • Directe link
    Temp 6h Neerslag Wind  
 04:55     20:58    Daglengte: 16:03 Vandaag
14:00
28°
 
2
20:00
24°
0.5 mm
3
 04:55     20:58    Daglengte: 16:03 Morgen
02:00
20°
1.0 mm
3
08:00
21°
1.5 mm
5
14:00
25°
 
4
20:00
23°
 
3
 04:56     20:58    Daglengte: 16:02 Zaterdag 22 Jun
02:00
19°
2.7 mm
4
08:00
20°
1.7 mm
4
14:00
24°
14.5 mm
3
warningclass
20:00
20°
37.7 mm
2
warningclass
 04:56     20:59    Daglengte: 16:03 Zondag 23 Jun
02:00
18°
79.1 mm
3
warningclass
08:00
18°
76.1 mm
3
Locatie info
Region: Vienna
Latitude: 48.2085°N
Longitude: 16.3721°E
193 masl
Temp/Neerslag /Baro Onweer/Dauwpunt
    Temp Baro 1h Neerslag Dauwpunt Wind UV Bewolking  
 04:55     20:58    Daglengte: 16:03 Vandaag
12:00
26°
1011.7 hPa   16.6°
1
Windvlaag: 0 km/h
7%
13:00
27°
1011.4 hPa   16.4°
2
Windvlaag: -0.6 km/h
8%
14:00
28°
1010.9 hPa
15%
16.3°
2
Windvlaag: -1.1 km/h
17%
15:00
29°
1010.3 hPa   16.3°
2
Windvlaag: -0.8 km/h
25%
16:00
29°
1010.2 hPa
15%
16.3°
2
Windvlaag: -0.7 km/h
27%
17:00
28°
1010.3 hPa
31%
18.7°
2
Windvlaag: -0.5 km/h
32%
18:00
28°
1010.4 hPa
66%
18.0°
2
Windvlaag: 0.5 km/h
39%
19:00
27°
1010.7 hPa
23%
19.4°
2
Windvlaag: 0.9 km/h
51%
20:00
24°
1011.6 hPa 0.5 mm
82%
18.5°
3
Windvlaag: 1 km/h
47%
21:00
23°
1011.9 hPa
79%
18.5°
2
Windvlaag: 1.3 km/h
41%
22:00
22°
1012.6 hPa
69%
18.7°
2
Windvlaag: 1.3 km/h
30%
23:00
22°
1012.8 hPa
72%
18.8°
2
Windvlaag: 1.4 km/h
33%
 04:55     20:58    Daglengte: 16:03 Morgen
00:00
21°
1013.3 hPa
79%
18.8°
2
Windvlaag: 1.2 km/h
32%
01:00
20°
1013.6 hPa 1.0 mm
78%
18.5°
2
Windvlaag: 0.7 km/h
60%
02:00
20°
1013.5 hPa
14%
17.4°
3
Windvlaag: 0.2 km/h
47%
03:00
20°
1013.5 hPa
21%
17.3°
4
Windvlaag: 0.5 km/h
47%
04:00
20°
1013.9 hPa
21%
17.1°
4
Windvlaag: 0.7 km/h
53%
05:00
19°
1014.0 hPa
18%
17.2°
4
Windvlaag: 0.1 km/h
56%
06:00
20°
1014.5 hPa
37%
16.9°
5
Windvlaag: -0.1 km/h
66%
07:00
20°
1015.0 hPa
39%
17.1°
5
Windvlaag: -0.1 km/h
35%
08:00
21°
1015.3 hPa 1.5 mm
77%
17.0°
5
Windvlaag: -0.2 km/h
49%
09:00
22°
1015.4 hPa
78%
17.1°
5
Windvlaag: -0.3 km/h
55%
10:00
23°
1015.4 hPa
79%
17.4°
5
Windvlaag: -0.8 km/h
28%
11:00
24°
1015.5 hPa
30%
17.2°
4
Windvlaag: -1 km/h
19%
12:00
25°
1015.5 hPa
34%
17.2°
4
Windvlaag: -1.3 km/h
34%
13:00
25°
1015.2 hPa
29%
17.5°
4
Windvlaag: -1.3 km/h
51%
14:00
25°
1014.6 hPa
32%
17.2°
4
Windvlaag: -1.5 km/h
60%
15:00
26°
1014.2 hPa
72%
17.1°
4
Windvlaag: -1.7 km/h
77%
16:00
26°
1014.2 hPa
80%
16.3°
4
Windvlaag: -1.8 km/h
63%
17:00
26°
1014.2 hPa
82%
15.0°
4
Windvlaag: -2.1 km/h
58%
18:00
25°
1014.4 hPa
79%
15.1°
4
Windvlaag: -2 km/h
62%
19:00
25°
1014.7 hPa
73%
16.7°
3
Windvlaag: -1.9 km/h
46%
20:00
23°
1015.3 hPa
67%
17.5°
3
Windvlaag: -2.3 km/h
41%
21:00
22°
1015.7 hPa
22%
18.2°
2
Windvlaag: -2.6 km/h
35%
22:00
21°
1016.3 hPa
69%
18.4°
3
Windvlaag: -1.4 km/h
31%
23:00
21°
1016.6 hPa
61%
18.2°
3
Windvlaag: -1.4 km/h
41%
 04:56     20:58    Daglengte: 16:02 Zaterdag 22 Jun
00:00
20°
1016.7 hPa
22%
17.9°
3
Windvlaag: -1.5 km/h
58%
01:00
20°
1016.8 hPa
14%
17.7°
3
Windvlaag: -1.3 km/h
54%
02:00
19°
1017.3 hPa 2.7 mm
14%
17.0°
4
Windvlaag: -1.5 km/h
79%
03:00
19°
1017.2 hPa
14%
16.8°
3
Windvlaag: -1.8 km/h
62%
04:00
18°
1017.2 hPa
14%
16.8°
3
Windvlaag: -2 km/h
63%
05:00
18°
1017.5 hPa
21%
17.1°
3
Windvlaag: -2.1 km/h
89%
06:00
19°
1017.7 hPa
26%
17.4°
3
Windvlaag: -2.2 km/h
84%
07:00
19°
1018.1 hPa 1.7 mm
38%
17.6°
3
Windvlaag: -1.8 km/h
74%
08:00
20°
1018.2 hPa
36%
17.6°
4
Windvlaag: -1.9 km/h
65%
09:00
21°
1018.1 hPa 2.3 mm
22%
17.7°
3
Windvlaag: -4.1 km/h
67% warningclass
10:00
21°
1017.8 hPa 2.2 mm
21%
17.8°
3
Windvlaag: -4.4 km/h
67% warningclass
11:00
22°
1017.5 hPa 2.3 mm
21%
18.0°
3
Windvlaag: -4.3 km/h
72% warningclass
12:00
22°
1017.3 hPa 2.4 mm
21%
18.2°
3
Windvlaag: -3.8 km/h
79% warningclass
13:00
23°
1017.0 hPa 2.7 mm
21%
18.3°
3
Windvlaag: -4.8 km/h
76% warningclass
14:00
24°
1016.6 hPa 2.6 mm
29%
18.3°
3
Windvlaag: -2.3 km/h
83% warningclass
15:00
23°
1016.3 hPa
95%
18.5°
3
Windvlaag: -4.3 km/h
80%
16:00
23°
1015.9 hPa
58%
18.8°
3
Windvlaag: -4.7 km/h
84%
17:00
22°
1016.0 hPa 5.4 mm
100%
18.7°
3
Windvlaag: -4.7 km/h
90% warningclass
18:00
22°
1016.0 hPa 6.4 mm
100%
18.7°
2
Windvlaag: -4 km/h
91% warningclass
19:00
21°
1016.1 hPa 12.9 mm
100%
18.3°
2
Windvlaag: -5.2 km/h
93%
20:00
20°
1016.0 hPa 13.0 mm
100%
18.0°
2
Windvlaag: -2.3 km/h
94% warningclass
21:00
20°
1016.0 hPa 14.2 mm
100%
18.0°
2
Windvlaag: -2.7 km/h
98% warningclass
22:00
20°
1016.1 hPa 8.7 mm
100%
17.7°
2
Windvlaag: -2.2 km/h
100% warningclass
23:00
19°
1016.1 hPa 8.6 mm
100%
17.8°
2
Windvlaag: -2 km/h
100% warningclass
 04:56     20:59    Daglengte: 16:03 Zondag 23 Jun
00:00
19°
1016.1 hPa 15.0 mm
100%
17.8°
2
Windvlaag: -1.9 km/h
100% warningclass
01:00
19°
1016.1 hPa 16.0 mm
100%
17.6°
3
Windvlaag: -2.4 km/h
100% warningclass
02:00
18°
1016.0 hPa 16.5 mm
100%
17.5°
3
Windvlaag: -0.8 km/h
100% warningclass
03:00
18°
1016.1 hPa 18.4 mm
100%
17.6°
2
Windvlaag: 4.9 km/h
100% warningclass
04:00
18°
1016.2 hPa 19.0 mm
100%
17.5°
2
Windvlaag: 3 km/h
94% warningclass
05:00
18°
1016.2 hPa 19.3 mm
100%
17.4°
3
Windvlaag: 4.2 km/h
93% warningclass
06:00
18°
1016.4 hPa 19.5 mm
97%
17.3°
3
Windvlaag: 6.4 km/h
92%
07:00
18°
1016.6 hPa
82%
17.4°
3
Windvlaag: 7.1 km/h
71%
08:00
18°
1016.8 hPa
25%
17.5°
3
Windvlaag: 0.7 km/h
78%
09:00
19°
1016.4 hPa 60.9 mm
100%
17.4°
3
Windvlaag: 3.1 km/h
91%
10:00
20°
1016.5 hPa 61.0 mm
100%
17.5°
4
Windvlaag: 2.8 km/h
86%
11:00
21°
1016.6 hPa 61.0 mm
100%
17.6°
4
Windvlaag: 2.2 km/h
86%
Temp/Neerslag /Baro Onweer/Dauwpunt
    Temp Baro Neerslag Dauwpunt Wind Bewolking  
 04:55     20:58    Daglengte: 16:03 Vandaag
14:00
28°
1010.9 hPa   16.3°
2
17%
17:00
28°
1010.3 hPa   18.7°
2
32%
20:00
24°
1011.6 hPa 0.5 mm 18.5°
3
47%
23:00
22°
1012.8 hPa   18.8°
2
33%
 04:55     20:58    Daglengte: 16:03 Morgen
02:00
20°
1013.5 hPa 1.0 mm 17.4°
3
47%
05:00
19°
1014.0 hPa   17.2°
4
56%
08:00
21°
1015.3 hPa 1.5 mm 17.0°
5
49%
11:00
24°
1015.5 hPa   17.2°
4
19%
14:00
25°
1014.6 hPa   17.2°
4
60%
17:00
26°
1014.2 hPa   15.0°
4
58%
20:00
23°
1015.3 hPa   17.5°
3
41%
23:00
21°
1016.6 hPa   18.2°
3
41%
 04:56     20:58    Daglengte: 16:02 Zaterdag 22 Jun
02:00
19°
1017.3 hPa 2.7 mm 17.0°
4
79%
05:00
18°
1017.5 hPa   17.1°
3
89%
08:00
20°
1018.2 hPa 1.7 mm 17.6°
4
65%
11:00
22°
1017.5 hPa 6.8 mm 18.0°
3
72% warningclass
14:00
24°
1016.6 hPa 7.6 mm 18.3°
3
83% warningclass
17:00
22°
1016.0 hPa 5.4 mm 18.7°
3
90% warningclass
20:00
20°
1016.0 hPa 32.4 mm 18.0°
2
94% warningclass
23:00
19°
1016.1 hPa 31.6 mm 17.8°
2
100% warningclass
 04:56     20:59    Daglengte: 16:03 Zondag 23 Jun
02:00
18°
1016.0 hPa 47.6 mm 17.5°
3
100% warningclass
05:00
18°
1016.2 hPa 56.7 mm 17.4°
3
93% warningclass
08:00
18°
1016.8 hPa 19.5 mm 17.5°
3
78%
11:00
21°
1016.6 hPa 182.8 mm 17.6°
4
86%
14:00
24°
1016.9 hPa 182.9 mm 17.2°
5
91%
17:00
23°
1017.7 hPa 34.3 mm 15.7°
5
90%
20:00
22°
1018.0 hPa 34.9 mm 14.8°
4
90%
23:00
21°
1019.0 hPa 34.9 mm 12.9°
4
90%
 04:56     20:59    Daglengte: 16:03 Maandag 24 Jun
02:00
20°
1019.9 hPa 34.9 mm 11.2°
4
90%
05:00
20°
1020.6 hPa 34.9 mm 11.7°
4
90%
08:00
20°
1021.5 hPa 34.9 mm 12.0°
4
90%
11:00
23°
1021.4 hPa 34.9 mm 13.6°
4
89%
14:00
26°
1021.2 hPa 34.9 mm 15.0°
4
89%
17:00
25°
1021.4 hPa 35.0 mm 14.7°
4
60%
20:00
24°
1021.8 hPa 35.1 mm 14.4°
4
30%
23:00
21°
1022.7 hPa 35.1 mm 14.0°
3
24%
 04:57     20:59    Daglengte: 16:02 Dinsdag 25 Jun
02:00
19°
1023.6 hPa 35.1 mm 13.2°
2
18%
05:00
19°
1024.1 hPa 35.1 mm 13.4°
3
9%
08:00
20°
1024.6 hPa 35.1 mm 13.5°
3
1%
11:00
24°
1024.4 hPa 35.1 mm 15.3°
3
1%
14:00
28°
1024.2 hPa 35.1 mm 17.0°
2
2%
17:00
27°
1023.6 hPa 35.1 mm 18.6°
2
2%
20:00
27°
1023.2 hPa 35.1 mm 20.0°
1
1%
23:00
23°
1024.1 hPa 35.1 mm 18.3°
1
1%
 04:57     20:59    Daglengte: 16:02 Woensdag 26 Jun
02:00
20°
1024.7 hPa 35.1 mm 16.5°
2
0%
05:00
21°
1024.9 hPa 35.1 mm 16.8°
2
8%
08:00
23°
1025.0 hPa 35.1 mm 17.1°
2
16%
11:00
26°
1024.5 hPa 35.1 mm 17.9°
3
8%
14:00
29°
1024.0 hPa 35.1 mm 18.3°
4
1%
17:00
28°
1022.9 hPa 35.1 mm 18.0°
3
0%
20:00
26°
1022.0 hPa 35.1 mm 17.8°
3
0%
23:00
23°
1021.9 hPa 35.1 mm 17.7°
2
1%
 04:57     20:59    Daglengte: 16:02 Donderdag 27 Jun
02:00
20°
1021.8 hPa 35.1 mm 17.0°
2
1%
05:00
21°
1021.1 hPa 35.1 mm 16.9°
3
2%
08:00
23°
1020.5 hPa 35.1 mm 16.6°
3
3%
11:00
27°
1019.6 hPa   17.5°
3
1%
14:00
31°
1018.6 hPa 70.2 mm 17.6°
3
0%
20:00
28°
1016.7 hPa 70.2 mm 19.8°
2
0%
 04:58     20:59    Daglengte: 16:01 Vrijdag 28 Jun
02:00
21°
1016.6 hPa 70.2 mm 18.7°
2
0%
08:00
28°
1015.7 hPa 70.2 mm 18.2°
4
0%
14:00
36°
1014.1 hPa 70.2 mm 17.6°
4
0%
20:00
32°
1012.6 hPa 70.2 mm 18.7°
2
41%
 04:58     20:59    Daglengte: 16:01 Zaterdag 29 Jun
02:00
24°
1012.9 hPa 70.2 mm 16.7°
3
3%
08:00
23°
1014.9 hPa 70.2 mm 13.0°
6
0%
14:00
30°
Voelt als: 30.2°
1013.5 hPa 70.2 mm 15.3°
5
0%
20:00
27°
1012.7 hPa 71.1 mm 19.7°
4
0%
 04:59     20:58    Daglengte: 15:59 Zondag 30 Jun
02:00
23°
1014.6 hPa 79.4 mm 20.3°
1
1%
08:00
23°
1014.8 hPa 1.3 mm 17.4°
1
29%
14:00
30°
1013.9 hPa 0.3 mm 17.3°
1
29%
20:00
27°
1013.3 hPa 0.7 mm 19.7°
1
33%
 05:00     20:58    Daglengte: 15:58 Maandag 01 Jul
02:00
20°
1013.9 hPa 1.6 mm 17.2°
1
35%
08:00
22°
1013.8 hPa 0.5 mm 17.7°
2
34%
14:00
29°
1012.4 hPa 0.9 mm 16.7°
2
31%
20:00
25°
1011.8 hPa 1.9 mm 18.6°
2
52%
 05:00     20:58    Daglengte: 15:58 Dinsdag 02 Jul
02:00
19°
1012.5 hPa 1.3 mm 16.0°
2
55%
08:00
20°
1012.6 hPa 2.8 mm 16.2°
2
49%
14:00
25°
1011.8 hPa 2.1 mm 16.2°
3
50%
20:00
22°
1011.6 hPa 1.4 mm 17.1°
2
56%
 05:01     20:58    Daglengte: 15:57 Woensdag 03 Jul
02:00
17°
1012.5 hPa 1.1 mm 14.6°
2
58%
08:00
18°
1013.1 hPa 2.2 mm 15.0°
3
55%
14:00
23°
1012.5 hPa 2.4 mm 14.7°
2
54%
20:00
22°
1012.1 hPa 0.5 mm 16.3°
1
55%
 05:02     20:57    Daglengte: 15:55 Donderdag 04 Jul
02:00
16°
1012.9 hPa 1.5 mm 13.7°
1
58%
08:00
18°
1013.7 hPa 1.6 mm 14.3°
3
42%
14:00
24°
1013.3 hPa 0.5 mm 14.0°
3
37%
20:00
21°
1013.3 hPa 0.6 mm 15.7°
2
52%
 05:02     20:57    Daglengte: 15:55 Vrijdag 05 Jul
02:00
16°
1014.5 hPa 0.5 mm 13.1°
2
40%
08:00
19°
1015.2 hPa 0.8 mm 14.1°
2
37%
  CAPE Lifted Index Hail Supercell Tornado SRH 3km CL BTM PRES CL TOP PRES Swiss DWD icon SMHI TS
 04:55     20:58    Daglengte: 16:03 Vandaag
12:00 265 J/kg -1.6 K 0 % 0 % 0 % 0 m²/s² 0 0 1.85 1
13:00 429 J/kg -2.1 K 0 % 0 % 0 % 0 m²/s² 0 0 1.53 1
14:00 589 J/kg -2.4 K 0 % 0 % 0 % 0 m²/s² 0 0 1.32 2
15:00 617 J/kg -2.5 K 0 % 0 % 0 % 0 m²/s² 0 0 1.67 3
16:00 632 J/kg -2.5 K 0 % 0 % 0 % 0 m²/s² 0 0 1.43 3
17:00 585 J/kg -2.6 K 0 % 0 % 0 % 0 m²/s² 0 0 1.36 80
18:00 760 J/kg -3.9 K 0 % 0 % 0 % 0 m²/s² 0 0 -0.15 3
19:00 1840 J/kg -6.6 K 0 % 0 % 0 % 0 m²/s² 0 0 -4.5 3
20:00 0 J/kg -3.8 K 0 % 0 % 0 % 0 m²/s² 0 0 -1.55 80
21:00 0 J/kg -3.8 K 0 % 0 % 0 % 0 m²/s² 0 0 -2.48 80
22:00 0 J/kg -2.9 K 0 % 0 % 0 % 0 m²/s² 0 0 -2.6 80
23:00 0 J/kg -2.0 K 0 % 0 % 0 % 0 m²/s² 0 0 -1.97 80
 04:55     20:58    Daglengte: 16:03 Morgen
00:00 0 J/kg 0.2 K 0 % 0 % 0 % 0 m²/s² 0 0 0.2 81
01:00 0 J/kg 0.5 K 0 % 0 % 0 % 0 m²/s² 0 0 0.71 80
02:00 0 J/kg 1.0 K 0 % 0 % 0 % 0 m²/s² 0 0 1.3 3
03:00 0 J/kg 1.6 K 0 % 0 % 0 % 0 m²/s² 0 0 1.96 3
04:00 0 J/kg 1.0 K 0 % 0 % 0 % 0 m²/s² 0 0 2.17 3
05:00 0 J/kg 0.8 K 0 % 0 % 0 % 0 m²/s² 0 0 2.24 3
06:00 0 J/kg 0.0 K 0 % 0 % 0 % 0 m²/s² 0 0 1.92 3
07:00 0 J/kg 0.2 K 0 % 0 % 0 % 0 m²/s² 0 0 2.51 2
08:00 0 J/kg 0.5 K 0 % 0 % 0 % 0 m²/s² 0 0 2.96 3
09:00 6 J/kg 0.2 K 0 % 0 % 0 % 0 m²/s² 0 0 2.81 80
10:00 141 J/kg -0.7 K 0 % 0 % 0 % 0 m²/s² 0 0 2.06 2
11:00 400 J/kg -1.6 K 0 % 0 % 0 % 0 m²/s² 0 0 1.34 2
12:00 590 J/kg -2.2 K 0 % 0 % 0 % 0 m²/s² 0 0 0.65 3
13:00 669 J/kg -2.3 K 0 % 0 % 0 % 0 m²/s² 0 0 0.64 3
14:00 693 J/kg -2.3 K 0 % 0 % 0 % 0 m²/s² 0 0 0.88 3
15:00 666 J/kg -2.1 K 0 % 0 % 0 % 0 m²/s² 0 0 1.17 3
16:00 653 J/kg -2.0 K 0 % 0 % 0 % 0 m²/s² 0 0 1.48 3
17:00 618 J/kg -1.9 K 0 % 0 % 0 % 0 m²/s² 0 0 1.28 3
18:00 456 J/kg -2.0 K 0 % 0 % 0 % 0 m²/s² 0 0 0.94 3
19:00 211 J/kg -0.9 K 0 % 0 % 0 % 0 m²/s² 0 0 1.8 3
20:00 135 J/kg -1.0 K 0 % 0 % 0 % 0 m²/s² 0 0 1.7 3
21:00 197 J/kg -1.5 K 0 % 0 % 0 % 0 m²/s² 0 0 1.2 3
22:00 79 J/kg -2.4 K 0 % 0 % 0 % 0 m²/s² 0 0 0.06 3
23:00 0 J/kg -2.8 K 0 % 0 % 0 % 0 m²/s² 0 0 -0.7 3
 04:56     20:58    Daglengte: 16:02 Zaterdag 22 Jun
00:00 0 J/kg -2.6 K 0 % 0 % 0 % 0 m²/s² 0 0 -1.49 3
01:00 21 J/kg -3.2 K 0 % 0 % 0 % 0 m²/s² 0 0 -2.84 3
02:00 75 J/kg -3.0 K 0 % 0 % 0 % 0 m²/s² 0 0 -2.97 3
03:00 180 J/kg -3.3 K 0 % 0 % 0 % 0 m²/s² 0 0 -3.3 0
04:00 331 J/kg -3.4 K 0 % 0 % 0 % 0 m²/s² 0 0 -3.31 3
05:00 217 J/kg -3.2 K 0 % 0 % 0 % 0 m²/s² 0 0 -2.9 3
06:00 232 J/kg -3.3 K 0 % 0 % 0 % 0 m²/s² 0 0 -2.85 2
07:00 344 J/kg -2.9 K 0 % 0 % 0 % 0 m²/s² 0 0 -2.27 2
08:00 646 J/kg -2.6 K 0 % 0 % 0 % 0 m²/s² 0 0 -1.97 3
09:00 1033 J/kg -3.6 K 0 % 0 % 0 % 0 m²/s² 0 0 -3.12 3
10:00 1373 J/kg -4.7 K 0 % 0 % 0 % 0 m²/s² 0 0 -3.98 2
11:00 1521 J/kg -4.9 K 0 % 0 % 0 % 0 m²/s² 0 0 -3.73 2
12:00 1816 J/kg -5.8 K 0 % 0 % 0 % 0 m²/s² 0 0 -4.69 3
13:00 1923 J/kg -5.8 K 0 % 0 % 0 % 0 m²/s² 0 0 -4.12 2
14:00 1907 J/kg -5.9 K 0 % 0 % 0 % 0 m²/s² 0 0 -4.1 2
15:00 1977 J/kg -6.1 K 0 % 0 % 0 % 0 m²/s² 0 0 -4.48 1
16:00 1994 J/kg -5.9 K 0 % 0 % 0 % 0 m²/s² 0 0 -4.22 3
17:00 1907 J/kg -6.5 K 0 % 0 % 0 % 0 m²/s² 0 0 -4.31 80
18:00 954 J/kg -3.8 K 0 % 0 % 0 % 0 m²/s² 0 0 -3.59 80
19:00 10 J/kg 0.5 K 0 % 0 % 0 % 0 m²/s² 0 0 0.95 80
20:00 0 J/kg -0.1 K 0 % 0 % 0 % 0 m²/s² 0 0 -0.1 95
21:00 245 J/kg -1.2 K 0 % 0 % 0 % 0 m²/s² 0 0 -1.11 95
22:00 0 J/kg 0.2 K 0 % 0 % 0 % 0 m²/s² 0 0 0.56 95
23:00 69 J/kg 0.1 K 0 % 0 % 0 % 0 m²/s² 0 0 0.85 95
 04:56     20:59    Daglengte: 16:03 Zondag 23 Jun
00:00 122 J/kg 0.2 K 0 % 0 % 0 % 0 m²/s² 0 0 0.83 95
01:00 9 J/kg 1.0 K 0 % 0 % 0 % 0 m²/s² 0 0 1.63 95
02:00 12 J/kg 1.5 K 0 % 0 % 0 % 0 m²/s² 0 0 2.16 95
03:00 68 J/kg 0.7 K 0 % 0 % 0 % 0 m²/s² 0 0 1.33 95
04:00 38 J/kg 2.1 K 0 % 0 % 0 % 0 m²/s² 0 0 2.58 95
05:00 1 J/kg 0.4 K 0 % 0 % 0 % 0 m²/s² 0 0 0.85 95
06:00 0 J/kg 1.1 K 0 % 0 % 0 % 0 m²/s² 0 0 1.13 80
07:00 1 J/kg 1.8 K 0 % 0 % 0 % 0 m²/s² 0 0 1.83 3
08:00 9 J/kg 3.0 K 0 % 0 % 0 % 0 m²/s² 0 0 3 3
09:00 35 J/kg 3.2 K 0 % 0 % 0 % 0 m²/s² 0 0 3.38
10:00 66 J/kg 1.9 K 0 % 0 % 0 % 0 m²/s² 0 0 2.86
11:00 99 J/kg 0.8 K 0 % 0 % 0 % 0 m²/s² 0 0 2.3
Temp Baro Wind Neerslag
  EWN Forecast EWN WRFDA DWD ICON FMI HIRLAM MET Norway GFS
 04:55     20:58    Daglengte: 16:03 Vandaag
14:00 28.3° 1010.9 hPa 2.4 m/s 0.0 mm 28.3° 1011.3 hPa 0.6 m/s 0.0 mm 30.4° 1010.5 hPa 0.4 m/s -2.0 mm 29.7° 1010.0 hPa 2.6 m/s 0.0 mm 27.3° 1011.2 hPa 2.6 m/s 0.0 mm 30.5° 1011.4 hPa 1.1 m/s
17:00 28.0° 1010.3 hPa 2.4 m/s 0.0 mm 29.5° 1010.2 hPa 1.7 m/s 0.0 mm 28.0° 1009.9 hPa 1.8 m/s 0.1 mm 30.3° 1009.3 hPa 2.4 m/s 0.0 mm 23.4° 1011.7 hPa 2.5 m/s 2.4 mm 30.1° 1010.4 hPa 2.2 m/s
20:00 24.4° 1011.6 hPa 2.9 m/s 0.5 mm 21.1° 1012.4 hPa 7.3 m/s 1.4 mm 23.8° 1012.4 hPa 4.2 m/s 0.9 mm 27.2° 1009.7 hPa 3.7 m/s 0.0 mm 24.1° 1011.8 hPa 0.8 m/s 0.0 mm 22.7° 1012.1 hPa 5.9 m/s
23:00 21.9° 1012.8 hPa 1.6 m/s 0.0 mm 20.4° 1013.2 hPa 5.6 m/s 3.6 mm 20.9° 1013.1 hPa 3.1 m/s 2.3 mm 22.7° 1011.0 hPa 0.8 m/s 0.0 mm 21.8° 1013.2 hPa 1.3 m/s 0.0 mm 20.3° 1013.6 hPa 3.1 m/s
 04:55     20:58    Daglengte: 16:03 Morgen
02:00 20.3° 1013.5 hPa 2.5 m/s 1.0 mm 18.4° 1014.2 hPa 2.1 m/s 8.1 mm 20.2° 1013.8 hPa 2.6 m/s 2.2 mm 20.1° 1011.7 hPa 1.9 m/s 0.0 mm 20.4° 1013.9 hPa 4.1 m/s 0.3 mm 19.6° 1014.9 hPa 3.9 m/s
05:00 19.3° 1014.0 hPa 4.2 m/s 0.0 mm 16.8° 1013.9 hPa 4.9 m/s 12.6 mm 19.6° 1014.6 hPa 3.7 m/s 0.0 mm 19.4° 1012.2 hPa 2.1 m/s 0.0 mm 19.0° 1014.6 hPa 5.4 m/s 0.0 mm 18.9° 1015.0 hPa 4.2 m/s
08:00 20.7° 1015.3 hPa 4.8 m/s 1.5 mm 19.7° 1015.0 hPa 5.0 m/s 12.6 mm 20.7° 1015.8 hPa 3.6 m/s 0.1 mm 23.1° 1013.3 hPa 5.8 m/s 0.0 mm 20.0° 1016.3 hPa 4.7 m/s 4.4 mm 21.0° 1016.0 hPa 4.7 m/s
11:00 24.0° 1015.5 hPa 4.4 m/s 0.0 mm 23.9° 1015.2 hPa 3.3 m/s 12.6 mm 24.0° 1015.9 hPa 4.0 m/s 0.3 mm 25.8° 1013.8 hPa 7.4 m/s 0.0 mm 22.8° 1016.5 hPa 3.8 m/s 0.0 mm 24.6° 1015.9 hPa 4.3 m/s
14:00 25.4° 1014.6 hPa 3.8 m/s 0.0 mm 26.9° 1014.5 hPa 3.2 m/s 12.6 mm 25.4° 1015.5 hPa 3.3 m/s 0.0 mm 22.9° 1013.6 hPa 10.6 m/s 0.0 mm 25.5° 1014.8 hPa 1.2 m/s 0.6 mm 27.5° 1015.0 hPa 3.9 m/s
17:00 25.9° 1014.2 hPa 4.0 m/s 0.0 mm 28.1° 1013.6 hPa 2.7 m/s 12.6 mm 24.6° 1015.0 hPa 3.6 m/s 0.3 mm 23.7° 1013.8 hPa 8.7 m/s 0.0 mm 26.6° 1014.2 hPa 2.4 m/s 0.0 mm 27.8° 1014.7 hPa 3.0 m/s
20:00 23.5° 1015.3 hPa 3.2 m/s 0.0 mm 27.0° 1013.2 hPa 2.2 m/s 12.6 mm 23.0° 1016.0 hPa 2.3 m/s 0.1 mm 23.2° 1014.3 hPa 5.0 m/s 0.0 mm 23.1° 1015.5 hPa 2.8 m/s 0.0 mm 25.0° 1014.8 hPa 2.7 m/s
23:00 20.7° 1016.6 hPa 2.9 m/s 0.0 mm 21.3° 1016.3 hPa 5.9 m/s 12.6 mm 20.8° 1017.2 hPa 1.7 m/s 0.1 mm 20.7° 1015.6 hPa 3.4 m/s 0.0 mm 20.1° 1016.6 hPa 1.2 m/s 0.0 mm 22.0° 1016.6 hPa 2.1 m/s
 04:56     20:58    Daglengte: 16:02 Zaterdag 22 Jun
02:00 19.1° 1017.3 hPa 3.7 m/s 2.7 mm 20.3° 1016.2 hPa 4.2 m/s 12.7 mm 19.8° 1017.9 hPa 1.9 m/s 0.0 mm 18.8° 1015.3 hPa 3.8 m/s 0.0 mm 18.9° 1017.6 hPa 3.3 m/s 2.6 mm 20.1° 1016.7 hPa 2.0 m/s
05:00 18.5° 1017.5 hPa 3.4 m/s 0.0 mm 19.4° 1016.2 hPa 2.1 m/s 14.7 mm 18.8° 1018.4 hPa 1.8 m/s 0.0 mm 18.2° 1017.5 hPa 3.4 m/s 0.0 mm 18.9° 1016.6 hPa 2.4 m/s
08:00 20.0° 1018.2 hPa 3.6 m/s 1.7 mm 21.4° 1017.1 hPa 1.1 m/s 17.6 mm 21.0° 1019.4 hPa 2.1 m/s 0.0 mm 20.0° 1018.2 hPa 3.9 m/s 0.0 mm 20.0° 1017.3 hPa 2.5 m/s
11:00 21.8° 1017.5 hPa 3.4 m/s 6.8 mm 24.1° 1016.6 hPa 3.7 m/s 18.4 mm 24.4° 1018.9 hPa 3.4 m/s 0.0 mm 21.6° 1017.4 hPa 2.7 m/s 22.9° 1016.4 hPa 3.2 m/s
14:00 23.6° 1016.6 hPa 3.0 m/s 7.6 mm 26.0° 1015.3 hPa 3.5 m/s 21.7 mm 27.3° 1017.3 hPa 3.1 m/s 0.0 mm 23.3° 1016.6 hPa 1.5 m/s 26.1° 1015.0 hPa 4.3 m/s
17:00 22.3° 1016.0 hPa 2.6 m/s 5.4 mm 23.6° 1014.3 hPa 3.6 m/s 34.5 mm 25.3° 1016.1 hPa 2.7 m/s 0.2 mm 21.8° 1016.3 hPa 1.1 m/s 24.9° 1013.7 hPa 4.2 m/s
20:00 20.3° 1016.0 hPa 2.0 m/s 32.4 mm 19.6° 1015.6 hPa 5.7 m/s 93.8 mm 22.0° 1017.0 hPa 1.6 m/s 1.6 mm 20.2° 1016.0 hPa 0.7 m/s 23.1° 1013.9 hPa 3.4 m/s
23:00 19.1° 1016.1 hPa 2.2 m/s 31.6 mm 19.2° 1014.6 hPa 4.2 m/s 115.9 mm 20.1° 1017.2 hPa 1.2 m/s 5.5 mm 19.1° 1016.1 hPa 1.8 m/s 20.7° 1014.6 hPa 2.7 m/s
 04:56     20:59    Daglengte: 16:03 Zondag 23 Jun
02:00 18.2° 1016.0 hPa 3.2 m/s 47.6 mm 18.6° 1013.7 hPa 5.4 m/s 137.0 mm 18.9° 1017.3 hPa 1.9 m/s 2.9 mm 18.1° 1016.2 hPa 3.0 m/s 19.2° 1014.8 hPa 2.2 m/s
05:00 18.1° 1016.2 hPa 2.9 m/s 56.7 mm 18.2° 1011.8 hPa 3.0 m/s 162.9 mm 18.1° 1017.8 hPa 1.6 m/s 3.6 mm 18.1° 1016.5 hPa 3.2 m/s 18.3° 1015.3 hPa 2.6 m/s
08:00 18.3° 1016.8 hPa 2.8 m/s 19.5 mm 18.2° 1013.2 hPa 2.2 m/s 178.0 mm 19.3° 1019.0 hPa 2.1 m/s 0.6 mm 18.1° 1016.8 hPa 3.4 m/s 18.4° 1016.3 hPa 3.2 m/s
11:00 21.2° 1016.6 hPa 4.1 m/s 182.8 mm 22.8° 1014.3 hPa 1.6 m/s 182.8 mm 20.9° 1017.0 hPa 4.5 m/s 18.7° 1017.5 hPa 3.3 m/s
14:00 24.0° 1016.9 hPa 5.4 m/s 182.9 mm 25.8° 1015.0 hPa 3.8 m/s 182.9 mm 23.7° 1017.2 hPa 5.7 m/s 22.2° 1017.7 hPa 4.7 m/s
17:00 22.9° 1017.7 hPa 4.7 m/s 34.3 mm 23.0° 1017.7 hPa 4.8 m/s 22.4° 1017.7 hPa 4.4 m/s 34.3 mm
20:00 22.4° 1018.0 hPa 4.3 m/s 34.9 mm 22.6° 1017.9 hPa 4.3 m/s 20.8° 1019.2 hPa 4.5 m/s 34.9 mm
23:00 21.2° 1019.0 hPa 4.2 m/s 34.9 mm 21.5° 1018.8 hPa 4.2 m/s 18.2° 1021.1 hPa 4.0 m/s 34.9 mm
 04:56     20:59    Daglengte: 16:03 Maandag 24 Jun
02:00 20.0° 1019.9 hPa 4.2 m/s 34.9 mm 20.3° 1019.7 hPa 4.2 m/s 17.2° 1021.6 hPa 3.9 m/s 34.9 mm
05:00 19.7° 1020.6 hPa 4.3 m/s 34.9 mm 20.0° 1020.5 hPa 4.3 m/s 16.6° 1021.3 hPa 4.4 m/s 34.9 mm
08:00 19.5° 1021.5 hPa 4.4 m/s 34.9 mm 19.6° 1021.4 hPa 4.4 m/s 18.8° 1022.4 hPa 4.5 m/s 34.9 mm
11:00 22.6° 1021.4 hPa 4.3 m/s 34.9 mm 22.6° 1021.2 hPa 4.3 m/s 22.6° 1022.6 hPa 4.6 m/s 34.9 mm
14:00 25.5° 1021.2 hPa 4.2 m/s 34.9 mm 25.6° 1021.1 hPa 4.2 m/s 25.0° 1021.9 hPa 4.5 m/s 34.9 mm
17:00 24.8° 1021.4 hPa 4.4 m/s 35.0 mm 24.8° 1021.4 hPa 4.3 m/s 25.9° 1021.6 hPa 5.0 m/s 35.0 mm
20:00 23.9° 1021.8 hPa 4.3 m/s 35.1 mm 23.9° 1021.7 hPa 4.4 m/s 23.7° 1022.4 hPa 3.8 m/s 35.1 mm
23:00 21.3° 1022.7 hPa 3.4 m/s 35.1 mm 21.2° 1022.6 hPa 3.4 m/s 21.3° 1024.4 hPa 2.8 m/s 35.1 mm
 04:57     20:59    Daglengte: 16:02 Dinsdag 25 Jun
02:00 18.7° 1023.6 hPa 2.4 m/s 35.1 mm 18.6° 1023.5 hPa 2.4 m/s 19.5° 1024.6 hPa 2.6 m/s 35.1 mm
05:00 19.4° 1024.1 hPa 2.6 m/s 35.1 mm 19.5° 1024.0 hPa 2.6 m/s 18.1° 1024.2 hPa 2.6 m/s 35.1 mm
08:00 20.4° 1024.6 hPa 2.8 m/s 35.1 mm 20.4° 1024.6 hPa 2.8 m/s 20.5° 1024.9 hPa 3.2 m/s 35.1 mm
11:00 24.1° 1024.4 hPa 2.5 m/s 35.1 mm 23.9° 1024.4 hPa 2.3 m/s 25.6° 1024.8 hPa 4.2 m/s 35.1 mm
14:00 27.5° 1024.2 hPa 2.1 m/s 35.1 mm 27.5° 1024.2 hPa 1.9 m/s 28.1° 1024.3 hPa 4.4 m/s 35.1 mm
17:00 27.2° 1023.6 hPa 1.5 m/s 35.1 mm 27.1° 1023.7 hPa 1.2 m/s 28.1° 1023.6 hPa 4.4 m/s 35.1 mm
20:00 26.6° 1023.2 hPa 0.8 m/s 35.1 mm 26.8° 1023.1 hPa 0.6 m/s 24.8° 1024.5 hPa 3.5 m/s 35.1 mm
23:00 23.2° 1024.1 hPa 1.1 m/s 35.1 mm 23.4° 1023.8 hPa 1.1 m/s 21.5° 1026.4 hPa 2.2 m/s 35.1 mm
 04:57     20:59    Daglengte: 16:02 Woensdag 26 Jun
02:00 19.9° 1024.7 hPa 1.6 m/s 35.1 mm 19.9° 1024.6 hPa 1.5 m/s 19.5° 1026.3 hPa 2.6 m/s 35.1 mm
05:00 21.1° 1024.9 hPa 2.0 m/s 35.1 mm 21.4° 1024.8 hPa 1.9 m/s 18.0° 1026.1 hPa 2.8 m/s 35.1 mm
08:00 22.6° 1025.0 hPa 2.4 m/s 35.1 mm 22.8° 1024.9 hPa 2.3 m/s 20.7° 1026.0 hPa 3.2 m/s 35.1 mm
11:00 26.0° 1024.5 hPa 3.0 m/s 35.1 mm 26.0° 1024.4 hPa 2.9 m/s 25.8° 1025.5 hPa 3.5 m/s 35.1 mm
14:00 29.2° 1024.0 hPa 3.5 m/s 35.1 mm 29.2° 1023.9 hPa 3.5 m/s 28.6° 1024.6 hPa 3.9 m/s 35.1 mm
17:00 27.9° 1022.9 hPa 3.3 m/s 35.1 mm 27.9° 1022.9 hPa 3.2 m/s 28.3° 1023.2 hPa 3.8 m/s 35.1 mm
20:00 26.4° 1022.0 hPa 3.0 m/s 35.1 mm 26.5° 1021.9 hPa 3.0 m/s 25.2° 1023.1 hPa 2.6 m/s 35.1 mm
23:00 23.2° 1021.9 hPa 2.4 m/s 35.1 mm 23.4° 1021.8 hPa 2.5 m/s 22.1° 1024.1 hPa 1.7 m/s 35.1 mm
 04:57     20:59    Daglengte: 16:02 Donderdag 27 Jun
02:00 20.2° 1021.8 hPa 2.0 m/s 35.1 mm 20.2° 1021.6 hPa 2.0 m/s 20.2° 1024.0 hPa 1.6 m/s 35.1 mm
05:00 21.4° 1021.1 hPa 2.7 m/s 35.1 mm 21.6° 1021.0 hPa 2.8 m/s 18.5° 1023.3 hPa 1.2 m/s 35.1 mm
08:00 22.9° 1020.5 hPa 3.4 m/s 35.1 mm 23.1° 1020.3 hPa 3.6 m/s 21.1° 1023.3 hPa 1.3 m/s 35.1 mm
11:00 26.8° 1019.6 hPa 3.1 m/s 35.1 mm 26.9° 1019.3 hPa 3.3 m/s 26.8° 1022.6 hPa 1.0 m/s 35.1 mm
14:00 30.5° 1018.6 hPa 2.9 m/s 35.1 mm 30.6° 1018.4 hPa 3.0 m/s 29.8° 1021.3 hPa 2.1 m/s 35.1 mm
20:00 28.0° 1016.7 hPa 1.8 m/s 35.1 mm 28.1° 1016.4 hPa 1.8 m/s 26.5° 1019.8 hPa 2.2 m/s 35.1 mm
 04:58     20:59    Daglengte: 16:01 Vrijdag 28 Jun
02:00 20.9° 1016.6 hPa 1.9 m/s 35.1 mm 20.9° 1016.3 hPa 2.0 m/s 21.4° 1020.2 hPa 0.8 m/s 35.1 mm
08:00 27.8° 1015.7 hPa 4.0 m/s 35.1 mm 28.2° 1015.4 hPa 4.2 m/s 23.3° 1019.0 hPa 1.7 m/s 35.1 mm
14:00 35.5° 1014.1 hPa 3.7 m/s 35.1 mm 36.0° 1013.8 hPa 3.6 m/s 30.4° 1016.8 hPa 4.7 m/s 35.1 mm
20:00 31.6° 1012.6 hPa 2.3 m/s 35.1 mm 32.0° 1012.3 hPa 2.1 m/s 27.1° 1015.8 hPa 5.0 m/s 35.1 mm
 04:58     20:59    Daglengte: 16:01 Zaterdag 29 Jun
02:00 24.5° 1012.9 hPa 3.0 m/s 35.1 mm 24.7° 1012.6 hPa 2.9 m/s 22.2° 1016.1 hPa 4.7 m/s 35.1 mm
08:00 23.1° 1014.9 hPa 6.2 m/s 35.1 mm 23.1° 1014.9 hPa 6.2 m/s 35.1 mm
14:00 30.5° 1013.5 hPa 5.5 m/s 35.1 mm 30.5° 1013.5 hPa 5.5 m/s 35.1 mm
20:00 26.9° 1012.7 hPa 4.0 m/s 36.0 mm 26.9° 1012.7 hPa 4.0 m/s 36.0 mm
 04:59     20:58    Daglengte: 15:59 Zondag 30 Jun
02:00 23.4° 1014.6 hPa 1.1 m/s 41.6 mm 23.3° 1014.6 hPa 1.1 m/s 41.6 mm
08:00 22.9° 1014.8 hPa 1.2 m/s 1.3 mm
14:00 30.1° 1013.9 hPa 0.9 m/s 0.3 mm
20:00 26.7° 1013.3 hPa 0.5 m/s 0.7 mm
 05:00     20:58    Daglengte: 15:58 Maandag 01 Jul
02:00 20.1° 1013.9 hPa 1.3 m/s 1.6 mm
08:00 22.4° 1013.8 hPa 1.6 m/s 0.5 mm
14:00 28.7° 1012.4 hPa 2.0 m/s 0.9 mm
20:00 24.6° 1011.8 hPa 1.6 m/s 1.9 mm
 05:00     20:58    Daglengte: 15:58 Dinsdag 02 Jul
02:00 18.6° 1012.5 hPa 1.7 m/s 1.3 mm
08:00 19.9° 1012.6 hPa 2.4 m/s 2.8 mm
14:00 24.7° 1011.8 hPa 3.0 m/s 2.1 mm
20:00 22.5° 1011.6 hPa 1.8 m/s 1.4 mm
 05:01     20:58    Daglengte: 15:57 Woensdag 03 Jul
02:00 16.9° 1012.5 hPa 2.0 m/s 1.1 mm
08:00 18.4° 1013.1 hPa 2.5 m/s 2.2 mm
14:00 23.4° 1012.5 hPa 2.1 m/s 2.4 mm
20:00 21.7° 1012.1 hPa 1.3 m/s 0.5 mm
 05:02     20:57    Daglengte: 15:55 Donderdag 04 Jul
02:00 16.2° 1012.9 hPa 1.2 m/s 1.5 mm
08:00 18.3° 1013.7 hPa 3.0 m/s 1.6 mm
14:00 23.8° 1013.3 hPa 2.7 m/s 0.5 mm
20:00 21.5° 1013.3 hPa 1.5 m/s 0.6 mm
 05:02     20:57    Daglengte: 15:55 Vrijdag 05 Jul
02:00 16.0° 1014.5 hPa 1.8 m/s 0.5 mm
08:00 18.6° 1015.2 hPa 2.5 m/s 0.8 mm
FMI Hirlam - 7.5 km EWN WRFDA - 12 km DWD ICON - 7 km GFS - 25 km Basiskaart






























































Updatetijd (Europe/Amsterdam)